Theta_e
309 309 309 310 310 310 311 311 311 311 311 311 312 313 314 314 317 318 322 324 322 322 318 321 322 322 322 323 322 320 315 314 317 327 325 326 331 337 338 337 339 335 340 343 339
309 309 310 310 310 310 310 311 311 311 311 312 313 314 314 316 318 319 324 325 322 319 318 320 322 321 322 323 322 318 313 316 322 326 323 322 327 334 338 339 338 339 343 343 342
310 310 310 310 310 311 311 311 311 311 311 312 313 314 314 317 320 326 323 320 317 317 319 320 320 322 323 321 322 319 318 320 329 325 324 324 325 327 337 338 339 342 343 342 342
309 310 310 310 310 310 311 311 311 311 312 312 314 314 316 317 322 324 320 318 318 319 320 320 321 321 320 320 323 320 321 322 325 326 325 325 325 327 332 337 340 336 338 339 342
312 311 310 310 310 311 311 311 311 311 312 313 314 314 317 318 323 324 322 318 318 320 321 322 322 322 319 320 321 322 323 325 326 325 326 326 331 336 335 338 334 335 335 339 339
313 313 312 313 313 313 312 312 312 312 312 314 314 315 317 319 323 322 321 318 321 321 321 321 321 321 320 320 319 322 322 324 326 325 326 327 336 340 335 336 337 337 335 335 336
316 318 319 320 320 320 319 318 314 313 313 313 314 316 317 321 324 322 322 322 322 321 321 321 321 321 321 317 322 322 320 319 322 323 325 325 343 341 337 337 338 335 334 334 333
317 319 320 320 320 320 319 317 315 313 313 313 316 317 320 326 325 323 322 321 322 322 321 321 321 321 321 321 321 320 318 319 319 323 324 324 347 342 341 340 339 338 338 337 336
315 319 320 321 321 322 319 315 314 314 316 316 316 324 325 326 323 321 321 321 322 322 322 322 321 320 320 317 316 315 318 318 322 322 324 332 343 341 339 339 339 337 335 332 334
313 318 320 321 322 322 324 322 318 317 318 321 319 320 324 325 323 322 321 321 321 322 322 322 321 317 315 316 319 320 322 323 323 323 339 342 340 337 336 336 336 335 334 331 331
314 315 320 320 321 323 324 326 328 325 323 325 325 325 326 323 323 323 321 321 321 321 319 321 319 319 320 319 321 324 325 325 325 323 335 342 341 339 334 333 334 333 333 331 332
313 314 316 319 322 324 325 326 326 326 325 326 326 326 327 327 324 324 323 321 322 320 321 320 320 321 321 323 325 324 324 324 325 325 332 334 336 333 333 333 331 331 330 329 329
313 314 315 317 322 323 326 326 326 326 325 326 329 329 325 324 324 324 323 323 322 321 323 322 324 324 325 324 324 323 324 323 325 323 331 332 334 335 332 330 329 328 329 327 327
313 314 315 318 323 326 324 324 325 326 326 330 326 325 325 324 324 324 324 324 324 324 323 324 324 325 324 325 323 322 322 323 323 321 321 321 332 335 332 329 327 324 322 324 326
312 314 315 320 323 323 323 323 324 326 337 333 323 325 324 324 325 324 324 326 325 323 323 324 324 325 326 325 324 324 322 322 323 321 321 325 334 337 335 330 326 323 320 323 324
312 313 315 319 321 323 323 323 325 327 336 329 325 324 323 323 324 325 325 325 325 325 327 328 330 328 328 327 325 324 322 320 318 319 323 330 335 341 337 331 325 321 319 319 318
312 313 314 315 322 323 323 326 325 328 328 330 324 323 321 323 324 324 325 324 324 325 326 328 329 330 329 327 324 321 319 321 323 323 324 328 335 336 331 326 324 319 317 317 317
313 313 315 316 323 322 326 323 329 330 330 328 327 323 323 324 325 325 324 327 326 325 325 329 328 327 324 326 325 324 320 319 325 324 324 333 337 335 325 324 322 319 318 318 317
313 319 324 323 322 322 327 326 327 330 327 327 327 330 328 329 327 327 330 329 327 326 326 326 328 326 325 323 323 325 324 320 322 323 321 335 334 329 325 323 320 319 317 317 317
318 322 325 322 322 325 323 326 328 325 325 326 328 330 328 328 330 329 331 330 329 327 326 329 327 327 325 325 324 324 323 324 320 326 326 332 332 333 331 326 322 319 317 318 317
323 326 325 324 323 324 321 325 326 323 323 324 325 326 326 329 329 331 331 329 328 329 326 327 324 325 323 322 325 323 324 323 321 322 324 326 332 328 328 324 322 319 318 318 318
318 323 324 322 322 321 321 325 326 324 325 325 325 326 328 328 329 331 329 329 329 329 326 323 322 324 324 323 323 322 325 324 323 328 329 326 330 323 324 323 320 319 320 319 318
323 326 324 323 321 320 325 325 322 322 323 323 323 323 325 325 326 329 327 325 324 325 325 323 323 325 325 321 320 322 325 323 321 321 327 326 329 322 323 324 323 321 320 319 316
325 322 325 323 324 325 324 324 325 324 324 324 323 325 323 327 326 329 329 329 328 326 328 327 325 324 324 323 321 327 328 325 322 322 328 330 328 324 323 323 321 321 318 314 312
321 322 321 319 321 322 321 322 324 325 325 327 327 327 327 329 327 329 329 329 328 329 327 323 325 325 324 324 327 329 330 329 330 329 329 328 326 323 321 321 321 319 312 312 310
319 320 321 322 321 321 320 321 324 325 323 325 328 328 325 325 325 325 326 326 326 328 325 321 321 325 324 327 327 328 329 327 326 325 323 321 321 320 318 315 313 312 311 310 310
316 319 321 322 322 319 319 324 324 323 327 329 327 327 326 326 325 324 324 324 325 322 324 323 323 324 326 327 327 328 328 324 324 322 321 321 320 317 313 313 312 311 310 310 308
Wind_Speed
4 5 5 5 6 6 6 6 6 7 7 8 9 11 14 16 14 11 6 3 6 10 8 5 9 11 15 14 17 12 2 5 5 4 7 7 6 17 6 24 5 4 13 20 29
3 3 4 4 5 5 6 6 6 6 7 8 9 12 14 15 12 10 6 7 9 9 7 10 14 20 10 7 4 6 3 7 9 4 3 1 1 14 9 13 12 18 25 33 31
3 2 3 4 4 5 5 5 6 6 7 8 10 11 13 14 12 3 5 8 5 6 8 11 16 15 6 4 9 6 8 9 7 6 6 9 12 7 23 2 26 32 31 29 27
4 3 4 4 4 4 5 5 6 6 7 8 9 10 12 10 1 4 10 7 2 6 9 13 12 15 5 5 12 4 15 21 17 7 6 4 5 18 11 10 22 28 23 21 20
5 4 4 4 4 4 4 5 6 6 7 7 9 9 10 6 7 1 7 2 3 6 12 17 20 7 3 8 18 3 3 5 6 4 2 5 25 12 25 33 36 24 23 31 30
6 5 5 5 4 4 4 5 5 5 6 6 8 8 8 5 3 3 9 3 1 9 15 18 16 20 8 9 3 14 10 8 6 6 4 16 18 14 14 28 28 25 26 22 22
8 7 6 5 6 6 6 6 5 5 5 6 6 9 11 8 4 2 6 2 3 7 12 12 14 17 18 11 24 19 9 9 13 4 2 22 19 18 22 36 32 31 26 22 18
7 7 7 7 8 7 6 5 5 4 4 4 6 10 8 6 7 11 9 11 11 10 13 11 12 16 6 15 13 6 4 4 6 2 3 12 7 20 19 29 27 25 22 19 15
8 7 7 8 8 8 7 5 3 2 1 4 7 7 9 4 8 6 7 13 13 16 14 17 12 8 8 4 6 7 5 2 4 10 5 13 13 17 18 20 29 22 24 25 23
9 6 6 7 8 8 8 5 3 2 2 5 8 9 4 9 3 5 6 10 14 14 12 5 3 2 4 4 3 5 6 6 8 9 29 27 19 17 21 26 24 21 20 23 24
8 6 4 4 6 7 9 6 4 1 6 12 14 15 23 5 3 4 3 6 10 11 3 5 4 6 12 7 3 7 7 8 5 7 17 20 18 14 18 21 23 19 18 23 25
8 6 4 3 2 6 8 7 7 12 10 17 19 21 18 16 9 13 9 7 2 7 6 5 4 12 7 6 7 8 6 2 3 10 19 17 19 14 15 17 21 22 20 22 23
8 6 3 4 5 4 7 6 11 10 4 15 11 15 12 5 5 12 7 3 5 5 6 7 4 4 7 7 8 6 7 6 2 3 19 23 8 11 16 21 21 21 22 21 20
7 5 3 2 1 6 9 15 6 8 4 6 6 5 10 5 3 4 5 4 5 6 2 4 5 10 10 10 6 9 6 8 8 7 3 4 4 6 10 12 15 14 15 17 16
7 3 2 5 4 7 16 11 11 7 3 4 5 5 9 6 3 2 2 2 2 5 7 4 7 8 10 3 5 3 4 5 3 5 4 8 7 2 7 9 9 10 12 16 15
7 3 3 3 1 12 10 13 9 5 2 3 6 6 3 9 4 7 2 4 4 4 8 3 5 5 5 3 5 1 9 9 7 4 3 5 5 3 3 4 5 8 10 14 13
7 3 4 2 2 8 10 9 5 2 6 2 6 5 6 4 4 4 3 6 1 4 5 6 6 3 5 7 9 11 7 4 5 5 4 2 10 3 8 8 9 9 9 12 10
6 1 2 2 4 7 10 5 4 6 3 6 2 2 3 3 3 3 4 5 8 6 4 4 7 8 11 4 5 3 6 5 3 3 6 8 4 3 6 10 9 9 10 9 7
3 3 6 4 5 6 4 4 5 4 4 6 6 9 9 9 4 5 5 3 4 5 5 4 2 3 7 3 3 5 3 2 4 1 3 4 4 8 8 7 7 9 8 8 6
6 2 4 3 4 3 5 3 3 4 7 6 5 5 7 8 8 3 4 6 4 6 7 1 2 3 6 9 14 5 3 5 4 2 3 4 3 4 9 6 6 8 10 9 9
7 3 4 2 2 1 3 5 3 11 12 5 4 4 4 4 6 4 5 7 6 4 14 3 4 7 6 5 4 6 6 4 3 3 2 2 2 1 3 5 6 15 11 5 5
6 3 2 3 2 2 2 4 1 8 12 7 6 6 4 6 4 5 4 6 7 4 4 5 4 1 4 5 6 3 3 2 4 3 3 5 4 3 3 4 7 7 5 7 4
7 6 6 4 3 4 8 7 4 4 4 4 5 4 1 4 4 4 7 8 18 6 2 3 4 3 8 8 7 6 5 4 5 4 1 4 2 3 3 6 8 10 7 3 4
5 4 7 10 14 2 5 5 7 7 12 5 9 8 5 8 8 3 3 8 14 8 9 5 4 5 4 7 2 5 7 5 4 4 4 1 4 5 3 5 9 5 6 8 8
8 4 6 3 8 9 5 4 4 5 8 16 10 13 5 4 6 5 4 2 6 7 5 5 3 4 5 6 11 9 9 9 7 3 2 5 2 3 6 7 9 4 11 9 9
5 6 8 6 12 7 6 4 5 3 6 4 8 8 10 5 4 3 4 2 2 3 3 4 1 3 4 10 15 12 9 9 12 9 6 5 0 4 10 18 19 13 10 10 10
7 4 3 7 8 5 3 3 3 3 15 14 14 6 8 7 15 12 7 4 3 5 2 3 3 3 3 3 5 8 8 8 7 6 2 1 1 18 10 13 12 11 11 10 9
Wind_Direction
288 278 274 273 271 270 271 278 284 295 306 304 304 312 317 317 316 294 282 326 310 330 318 313 288 308 309 274 262 263 12 269 264 261 288 12 123 163 169 131 131 132 142 133 147
312 304 288 275 275 277 277 279 289 299 301 302 304 314 321 322 323 275 311 304 320 314 286 296 309 323 316 260 237 159 152 240 212 226 226 279 260 150 123 121 97 116 106 143 150
327 317 297 292 288 282 283 290 293 292 295 298 306 318 322 329 328 357 346 324 305 269 282 304 315 321 285 278 218 212 225 249 237 300 71 34 9 59 125 315 159 145 123 142 145
347 334 318 307 296 297 298 292 289 291 291 297 306 321 325 329 319 327 348 0 233 265 299 312 317 319 308 319 300 178 244 252 289 253 42 17 30 41 77 150 140 127 127 145 137
4 351 337 328 324 313 301 294 290 289 289 297 311 329 336 309 291 326 321 253 224 291 315 319 321 309 236 318 331 101 303 319 330 354 68 26 71 90 83 116 136 125 114 110 113
9 7 11 11 1 341 327 307 296 289 287 300 313 326 321 280 266 53 1 160 326 317 328 325 326 337 293 318 1 312 309 330 325 19 92 67 35 81 69 107 114 116 110 114 117
22 20 13 360 351 339 320 307 293 282 283 295 315 320 298 278 210 279 347 338 24 331 326 343 331 339 335 323 334 341 2 341 312 8 186 104 33 94 115 105 96 103 104 101 114
17 9 358 357 354 341 325 308 292 288 287 293 317 318 277 318 296 239 266 284 290 292 269 291 304 310 314 318 343 7 41 1 306 209 26 72 86 85 100 101 95 92 91 90 96
11 359 359 6 10 12 14 16 34 49 331 314 315 312 282 291 254 244 259 274 295 296 264 280 285 309 335 43 353 4 263 307 28 13 61 86 112 92 92 91 88 79 66 56 62
7 352 353 0 360 10 11 2 7 318 290 301 274 308 265 319 208 237 237 278 289 296 301 311 224 27 15 69 251 302 16 40 57 21 78 95 94 92 99 97 92 86 89 73 71
5 353 332 339 337 351 358 12 353 344 295 282 285 267 295 339 294 265 199 251 269 291 241 323 90 254 263 226 201 102 67 51 355 76 66 91 93 86 92 93 100 99 93 87 84
359 354 320 287 282 337 355 335 23 332 301 300 290 277 279 286 288 292 251 240 255 275 329 22 226 228 233 68 75 62 53 15 325 81 93 104 93 93 80 85 102 106 97 91 93
350 350 332 261 210 318 328 326 344 347 291 300 250 254 258 234 268 267 220 283 280 278 310 145 229 49 81 61 51 33 31 359 329 104 116 111 84 103 83 76 79 83 105 105 107
341 344 336 260 271 315 4 4 341 348 54 280 184 244 239 239 295 156 235 347 326 285 108 76 16 79 48 34 67 32 331 9 4 37 306 183 120 101 97 82 67 55 71 91 97
339 327 299 230 280 356 351 345 340 315 42 237 205 177 182 181 144 243 277 331 282 289 64 296 72 65 62 75 70 250 338 352 9 8 72 355 86 132 144 70 63 70 74 86 98
332 296 257 242 360 358 340 327 325 47 274 227 177 178 166 217 224 208 205 258 310 27 40 40 58 59 154 160 98 257 28 18 26 31 45 314 108 25 56 128 111 96 97 98 99
326 281 237 246 18 341 335 346 41 99 315 155 194 168 196 248 202 180 154 19 130 59 4 360 344 13 31 28 4 44 47 359 0 7 241 31 70 104 99 102 126 140 123 112 108
330 222 183 121 11 339 354 51 54 267 20 333 19 182 198 219 198 168 116 78 22 71 76 77 12 20 341 51 333 309 133 149 245 230 267 33 74 104 136 129 128 124 126 119 126
357 140 134 86 45 353 11 64 215 316 346 3 16 46 5 349 103 112 68 62 55 25 108 61 325 337 33 14 66 301 12 198 119 12 63 115 103 140 130 123 141 158 169 185 174
41 125 117 79 28 20 70 236 266 26 7 39 60 29 24 351 21 48 66 334 85 51 84 343 29 18 322 42 5 61 271 20 8 313 279 82 78 334 154 188 182 193 202 207 180
35 82 64 240 254 18 139 234 278 51 39 52 25 26 16 38 20 27 28 37 33 26 61 59 75 309 32 33 8 350 347 33 128 103 20 349 163 45 105 151 166 200 189 210 250
34 55 26 301 38 56 181 223 128 57 41 30 74 67 35 34 40 58 75 23 35 63 56 340 120 32 261 268 52 59 343 88 116 316 120 150 235 321 148 170 188 197 243 244 265
6 341 17 359 53 338 323 340 66 55 57 35 43 32 12 30 58 70 72 9 66 66 80 353 21 19 344 346 359 42 354 41 90 85 198 145 216 234 138 183 228 244 255 198 73
25 20 12 44 32 95 7 347 7 32 47 50 26 17 12 34 24 116 114 35 52 59 53 111 92 143 191 237 255 64 24 19 89 101 147 254 165 217 215 215 214 221 169 95 59
27 41 9 329 345 343 33 357 27 356 72 29 27 42 65 53 43 47 73 61 47 74 52 86 50 13 309 317 86 91 67 55 67 68 91 170 222 201 236 239 252 163 105 61 57
39 12 352 310 328 359 356 323 21 359 42 53 98 58 56 77 52 38 89 106 186 54 73 21 274 51 320 72 80 63 29 81 86 91 89 134 166 154 86 96 93 91 78 78 75
45 37 347 348 346 19 278 316 10 104 58 107 111 86 45 339 334 320 287 254 250 147 112 102 111 63 290 332 129 46 42 78 79 43 109 47 358 113 85 91 85 88 95 70 31